Home   Weather   Port St. Lucie   Past weeks

Flag for USA Past Weather in Port St. Lucie, Florida, USA — Yesterday and Last 2 Weeks

Now
86 °F

Scattered clouds.


Feels Like: 95 °F
Forecast: 76 / 89 °F
Wind: 17 mph from Southeast

Location: Witham Field Airport

Current Time: Apr 28, 2017 at 4:03:26 pm

Latest Report: Apr 28, 2017 at 2:47 pm


Visibility: 7 mi

Pressure: 30.10 "Hg

Humidity: 70%

Dew Point: 75 °F

Location of Port St. LucieLocation

Past Weather in Port St. Lucie — Graph

°F

Port St. Lucie Temperature Yesterday

Maximum temperature yesterday: 90 °F (at 2:47 pm)
Minimum temperature yesterday: 73 °F (at 5:35 am)
Average temperature yesterday: 80 °F

High & Low Weather Summary for the Past Weeks

 TemperatureHumidityPressure
High90 °F (Apr 24, 2:47 pm)100% (Apr 23, 7:47 am)30.27 "Hg (Apr 23, 7:47 am)
Low61 °F (Apr 26, 6:15 am)37% (Apr 25, 5:47 pm)29.69 "Hg (Apr 24, 4:47 pm)
Average77 °F68%30.04 "Hg
* Reported Apr 13 1:47 pm — Apr 28 1:47 pm, Port St. Lucie, Weather by CustomWeather, © 2017

Note: Actual official high and low records may vary slightly from our data, if they occured in-between our weather recording intervals... More about our weather records

Advertising

Port St. Lucie Weather History for the Previous 24 Hours

Scroll right to see more
 ConditionsComfort  
Time TempWeatherWind HumidityBarometerVisibility
1:47 pm
Fri, Apr 28
88 °FScattered clouds.18 mph66%30.12 "Hg7 mi
12:47 pm88 °FScattered clouds.14 mph66%30.12 "Hg7 mi
11:47 am88 °FScattered clouds.14 mph66%30.12 "Hg7 mi
10:47 am86 °FScattered clouds.12 mph66%30.11 "Hg7 mi
9:47 am84 °FScattered clouds.10 mph74%30.10 "Hg7 mi
8:47 am82 °FPartly sunny.8 mph89%30.08 "Hg7 mi
7:47 am79 °FFog.6 mph100%30.07 "Hg6 mi
6:50 am77 °FFog.6 mph100%30.04 "Hg6 mi
6:35 am77 °FPassing clouds.5 mph100%30.03 "Hg7 mi
6:15 am77 °FPassing clouds.No wind100%30.02 "Hg7 mi
5:55 am77 °FPassing clouds.3 mph100%30.02 "Hg10 mi
5:35 am77 °FClear.No wind100%30.01 "Hg10 mi
5:15 am77 °FClear.5 mph100%30.01 "Hg10 mi
4:55 am77 °FClear.5 mph100%30.00 "Hg10 mi
4:35 am79 °FPassing clouds.5 mph100%30.00 "Hg10 mi
3:35 am79 °FPassing clouds.8 mph100%30.00 "Hg10 mi
3:15 am79 °FPassing clouds.7 mph100%30.00 "Hg10 mi
2:15 am79 °FPassing clouds.10 mph100%30.00 "Hg10 mi
1:55 am79 °FPassing clouds.10 mph100%30.00 "Hg10 mi
1:35 am79 °FClear.8 mph100%30.00 "Hg10 mi
1:15 am79 °FPassing clouds.7 mph100%30.01 "Hg10 mi
12:55 am79 °FClear.7 mph100%30.00 "Hg10 mi
12:35 am79 °FPassing clouds.9 mph100%30.00 "Hg10 mi
12:15 am79 °FMostly cloudy.7 mph100%30.00 "Hg10 mi
11:55 pm
Thu, Apr 27
79 °FPartly cloudy.6 mph100%29.99 "Hg10 mi
11:35 pm79 °FPassing clouds.7 mph100%29.99 "Hg10 mi
11:15 pm81 °FPassing clouds.8 mph94%29.99 "Hg10 mi
10:55 pm81 °FMostly cloudy.7 mph94%29.99 "Hg10 mi
10:35 pm81 °FOvercast.8 mph94%30.00 "Hg10 mi
10:15 pm81 °FPassing clouds.7 mph94%29.99 "Hg10 mi
8:47 pm81 °FClear.12 mph100%29.96 "Hg7 mi
7:47 pm82 °FSunny.12 mph94%29.94 "Hg7 mi
6:47 pm86 °FSunny.16 mph75%29.92 "Hg7 mi
5:47 pm88 °FPassing clouds.16 mph66%29.91 "Hg7 mi
4:47 pm90 °FScattered clouds.16 mph67%29.92 "Hg7 mi
Weather by CustomWeather, © 2017

See weather overviewHow to use our weather pages